Weather History for KRDG - December, 2012

Change the Weather History Date:

Thursday, December 20, 2012

  Actual Average Record
Temperature  
Mean Temperature 37 °F 33 °F  
Max Temperature 46 °F 40 °F 63 °F (1959)
Min Temperature 27 °F 25 °F 0 °F (1942)
Degree Days  
Heating Degree Days 28 32  
Month to date heating degree days 454 594  
Since 1 July heating degree days 1505 1661  
Cooling Degree Days 0 0  
Month to date cooling degree days 0 0  
Year to date cooling degree days 1281 896  
Moisture  
Dew Point 33 °F    
Average Humidity 79    
Maximum Humidity 100    
Minimum Humidity 57    
Precipitation  
Precipitation 0.37 in 0.10 in 2.13 in (1957)
Month to date precipitation 1.43 2.21  
Year to date precipitation 37.35 42.19  
Sea Level Pressure  
Sea Level Pressure 29.98 in    
Wind  
Wind Speed 5 mph (ESE)    
Max Wind Speed 21 mph    
Max Gust Speed 37 mph    
Visibility 8 miles    
Events Rain    
T = Trace of Precipitation, MM = Missing Value Source: NWS Daily Summary

Daily Weather History Graph

Daily Weather History Graph

Search for Another Location

Airport or City:

Trip Planner

Search our weather history database for the weather conditions in past years. The results will help you decide how hot, cold, wet, or windy it might be!

Date:

Astronomy

Dec. 20, 2012 Rise Set
Actual Time 7:23 AM EST 4:40 PM EST
Civil Twilight 6:52 AM EST 5:11 PM EST
Nautical Twilight 6:17 AM EST 5:45 PM EST
Astronomical Twilight 5:44 AM EST 6:18 PM EST
Moon 11:58 AM EST (12/20) 12:06 AM EST (12/20)
Length of Visible Light 10h 19m
Length of Day
9h 17m
First Quarter, 55% of the Moon is Illuminated
Dec 20
First Quarter
Dec 28
Full
Jan 4
Last Quarter
Jan 11
New
Jan 18
First Quarter

Hourly Weather History & Observations

Time (EST) Temp. Windchill Dew Point Humidity Pressure Visibility Wind Dir Wind Speed Gust Speed Precip Events Conditions
1:54 AM 30.0 °F 25.2 °F 28.0 °F 92% 30.18 in 7.0 mi South 4.6 mph - N/A   Clear
2:54 AM 28.0 °F 24.2 °F 26.1 °F 92% 30.20 in 10.0 mi NW 3.5 mph - N/A   Clear
3:54 AM 30.0 °F - 28.0 °F 92% 30.20 in 8.0 mi Calm Calm - N/A   Clear
4:54 AM 28.9 °F - 27.0 °F 92% 30.21 in 6.0 mi Calm Calm - N/A   Clear
5:54 AM 28.9 °F - 28.0 °F 96% 30.20 in 5.0 mi Calm Calm - N/A   Clear
6:54 AM 30.0 °F - 27.0 °F 88% 30.21 in 10.0 mi Calm Calm - N/A   Clear
7:54 AM 28.9 °F - 28.0 °F 96% 30.22 in 6.0 mi Calm Calm - N/A   Clear
8:54 AM 32.0 °F - 30.0 °F 92% 30.21 in 6.0 mi Calm Calm - N/A   Clear
9:54 AM 34.0 °F - 32.0 °F 92% 30.19 in 5.0 mi Calm Calm - N/A   Clear
10:54 AM 37.0 °F 33.3 °F 33.1 °F 86% 30.16 in 7.0 mi ENE 4.6 mph - N/A   Clear
11:54 AM 39.9 °F 35.8 °F 28.0 °F 63% 30.11 in 10.0 mi East 5.8 mph - N/A   Clear
12:54 PM 39.9 °F 33.4 °F 27.0 °F 60% 30.12 in 10.0 mi SSE 10.4 mph - N/A   Clear
1:54 PM 39.9 °F 35.1 °F 27.0 °F 60% 30.09 in 10.0 mi SE 6.9 mph - N/A   Clear
2:54 PM 41.0 °F 36.4 °F 28.0 °F 60% 30.06 in 10.0 mi SE 6.9 mph - N/A   Clear
3:54 PM 42.1 °F 37.1 °F 28.9 °F 60% 30.03 in 10.0 mi SE 8.1 mph - N/A   Clear
4:54 PM 42.1 °F 38.4 °F 30.0 °F 62% 30.00 in 10.0 mi ESE 5.8 mph - N/A   Mostly Cloudy
5:54 PM 41.0 °F 38.0 °F 33.1 °F 73% 29.97 in 10.0 mi Variable 4.6 mph - 0.01 in Rain Light Rain
6:18 PM 39.2 °F 35.0 °F 33.8 °F 81% 29.96 in 10.0 mi ESE 5.8 mph - 0.00 in   Overcast
6:54 PM 41.0 °F 36.4 °F 34.0 °F 76% 29.95 in 10.0 mi ESE 6.9 mph - 0.00 in   Overcast
7:15 PM 39.2 °F 34.2 °F 33.8 °F 81% 29.92 in 10.0 mi East 6.9 mph - 0.00 in Rain Light Rain
7:25 PM 41.0 °F 36.4 °F 33.8 °F 76% 29.91 in 10.0 mi East 6.9 mph - 0.00 in Rain Light Rain
7:35 PM 39.2 °F 34.2 °F 35.6 °F 87% 29.90 in 10.0 mi East 6.9 mph - 0.00 in Rain Light Rain
7:46 PM 39.2 °F 32.5 °F 35.6 °F 87% 29.89 in 10.0 mi ESE 10.4 mph - 0.01 in Rain Light Rain
7:54 PM 41.0 °F 35.8 °F 36.0 °F 82% 29.90 in 9.0 mi East 8.1 mph - 0.02 in Rain Rain
8:15 PM 41.0 °F 34.3 °F 35.6 °F 81% 29.85 in 7.0 mi ESE 11.5 mph 19.6 mph 0.02 in Rain Light Rain
8:25 PM 41.0 °F 34.3 °F 35.6 °F 81% 29.84 in 7.0 mi ESE 11.5 mph - 0.03 in Rain Rain
8:37 PM 41.0 °F 34.3 °F 37.4 °F 87% 29.85 in 7.0 mi ESE 11.5 mph 17.3 mph 0.04 in Rain Rain
8:47 PM 41.0 °F 35.8 °F 37.4 °F 87% 29.85 in 7.0 mi SE 8.1 mph 18.4 mph 0.06 in Rain Rain
8:54 PM 41.0 °F 35.2 °F 37.0 °F 86% 29.88 in 7.0 mi SE 9.2 mph 17.3 mph 0.07 in Rain Rain
9:28 PM 41.0 °F 35.2 °F 37.4 °F 87% 29.81 in 7.0 mi ESE 9.2 mph - 0.07 in Rain Rain
9:54 PM 42.1 °F 36.1 °F 39.0 °F 89% 29.79 in 6.0 mi ESE 10.4 mph 24.2 mph 0.12 in Rain Rain
10:06 PM 42.8 °F 35.8 °F 39.2 °F 87% 29.75 in 8.0 mi ESE 13.8 mph 20.7 mph 0.02 in Rain Rain
10:18 PM 42.8 °F 37.0 °F 39.2 °F 87% 29.73 in 8.0 mi ESE 10.4 mph 25.3 mph 0.03 in Rain Rain
10:34 PM 42.8 °F 34.8 °F 39.2 °F 87% 29.71 in 8.0 mi East 17.3 mph 25.3 mph 0.06 in Rain Rain
10:54 PM 43.0 °F 35.7 °F 39.9 °F 89% 29.69 in 10.0 mi ESE 15.0 mph 31.1 mph 0.09 in Rain Rain
11:54 PM 45.0 °F 39.3 °F 42.1 °F 90% 29.59 in 9.0 mi ESE 11.5 mph 29.9 mph 0.05 in Rain Light Rain